Temp
-10 -10 -10 -10 -10 -10 -10 -10 -11 -11 -12 -12 -12 -12 -12 -13 -13 -13 -13 -13 -14 -14 -14 -14 -15 -15 -15 -15 -16 -16 -16 -16 -17 -17 -17 -18 -18 -19 -18 -19 -20 -21 -20
-10 -10 -9 -10 -10 -10 -10 -11 -11 -11 -11 -11 -12 -12 -13 -13 -13 -14 -13 -14 -14 -15 -15 -15 -15 -15 -15 -16 -17 -15 -17 -16 -17 -17 -18 -18 -18 -19 -19 -20 -21 -20 -20
-10 -10 -10 -10 -10 -11 -11 -11 -11 -11 -11 -11 -12 -12 -13 -13 -14 -14 -14 -14 -15 -15 -15 -15 -15 -15 -16 -16 -17 -17 -17 -16 -17 -18 -17 -18 -19 -19 -20 -20 -20 -20 -20
-11 -11 -11 -11 -11 -11 -11 -11 -11 -11 -11 -12 -12 -12 -13 -13 -14 -14 -14 -14 -15 -15 -14 -15 -15 -15 -15 -16 -17 -17 -17 -17 -18 -18 -18 -19 -19 -19 -19 -20 -20 -20 -21
-11 -11 -11 -11 -10 -11 -11 -11 -11 -12 -12 -12 -12 -12 -12 -13 -14 -14 -14 -14 -15 -15 -15 -15 -15 -16 -16 -16 -16 -16 -18 -18 -18 -19 -18 -18 -19 -19 -20 -20 -20 -20 -21
-11 -11 -11 -11 -11 -12 -11 -11 -11 -11 -12 -12 -12 -13 -13 -13 -14 -14 -15 -15 -15 -15 -16 -16 -16 -16 -17 -17 -17 -18 -16 -18 -18 -17 -18 -19 -19 -19 -19 -20 -20 -20 -21
-12 -13 -13 -13 -13 -13 -13 -12 -12 -13 -13 -13 -13 -14 -14 -14 -14 -14 -15 -15 -16 -16 -16 -17 -18 -18 -18 -18 -18 -18 -17 -19 -18 -18 -20 -19 -19 -20 -20 -20 -20 -21 -21
-13 -13 -13 -13 -13 -13 -13 -13 -14 -14 -14 -14 -14 -14 -14 -14 -14 -15 -15 -15 -16 -17 -18 -18 -19 -19 -18 -18 -18 -19 -19 -18 -18 -19 -19 -19 -20 -20 -20 -20 -20 -21 -21
-13 -14 -13 -13 -13 -14 -14 -14 -14 -14 -14 -14 -15 -15 -15 -15 -15 -16 -16 -17 -18 -18 -18 -18 -18 -18 -18 -18 -19 -19 -19 -19 -18 -19 -19 -20 -19 -20 -20 -20 -21 -21 -21
-14 -14 -14 -14 -14 -14 -14 -14 -14 -15 -15 -15 -15 -16 -16 -16 -17 -17 -17 -17 -17 -17 -18 -18 -18 -19 -19 -19 -19 -19 -20 -19 -19 -19 -20 -20 -20 -20 -20 -21 -21 -21 -21
-15 -15 -15 -15 -15 -15 -15 -16 -16 -16 -16 -16 -16 -16 -16 -16 -16 -17 -17 -17 -18 -18 -18 -18 -18 -19 -18 -18 -19 -19 -19 -20 -20 -20 -20 -20 -20 -21 -21 -21 -21 -21 -22
-15 -15 -15 -15 -16 -16 -16 -16 -16 -16 -16 -16 -17 -17 -17 -17 -18 -18 -18 -18 -18 -18 -18 -18 -19 -19 -19 -18 -19 -19 -20 -20 -20 -20 -20 -21 -21 -21 -21 -21 -21 -22 -22
-16 -16 -16 -16 -16 -16 -16 -16 -17 -17 -17 -17 -17 -17 -17 -17 -17 -18 -18 -18 -18 -18 -18 -18 -18 -18 -18 -19 -19 -19 -19 -19 -19 -20 -20 -20 -20 -20 -21 -21 -22 -22 -22
-17 -17 -17 -17 -17 -17 -17 -17 -17 -17 -17 -17 -17 -17 -17 -18 -18 -18 -18 -18 -18 -18 -18 -18 -19 -19 -19 -19 -19 -19 -19 -20 -20 -20 -20 -20 -20 -21 -22 -22 -22 -22 -23
-17 -17 -17 -17 -18 -18 -18 -18 -18 -18 -18 -18 -18 -18 -18 -18 -18 -18 -18 -18 -18 -18 -18 -19 -19 -19 -19 -19 -20 -20 -20 -21 -21 -21 -21 -22 -22 -23 -23 -23 -23 -23 -23
-17 -17 -17 -17 -18 -18 -18 -18 -18 -18 -18 -18 -18 -19 -19 -19 -19 -19 -19 -19 -19 -19 -19 -19 -20 -20 -20 -20 -20 -20 -20 -20 -21 -21 -22 -22 -22 -22 -23 -23 -24 -24 -24
-17 -17 -17 -18 -18 -18 -18 -18 -18 -18 -18 -19 -19 -19 -19 -19 -19 -20 -20 -20 -20 -20 -20 -20 -20 -21 -21 -21 -21 -21 -22 -22 -22 -22 -22 -23 -23 -23 -23 -23 -24 -24 -24
-17 -17 -17 -18 -18 -18 -18 -18 -19 -19 -20 -20 -20 -20 -20 -20 -21 -21 -21 -21 -21 -21 -21 -21 -21 -21 -22 -22 -22 -22 -23 -23 -23 -23 -23 -24 -24 -24 -24 -24 -24 -25 -25
-18 -18 -18 -18 -18 -19 -19 -19 -20 -20 -20 -20 -20 -20 -20 -20 -20 -20 -21 -21 -21 -21 -22 -22 -22 -22 -23 -23 -23 -23 -23 -23 -23 -24 -24 -24 -24 -24 -25 -25 -26 -26 -26
-19 -19 -19 -19 -19 -19 -19 -19 -20 -20 -20 -20 -20 -20 -21 -21 -21 -21 -21 -22 -22 -22 -22 -22 -22 -23 -23 -23 -23 -23 -23 -24 -24 -24 -24 -25 -25 -25 -26 -26 -27 -27 -28
-19 -19 -19 -19 -19 -19 -20 -20 -20 -21 -21 -21 -21 -21 -21 -21 -22 -22 -22 -22 -22 -22 -23 -23 -23 -23 -23 -23 -24 -24 -24 -25 -25 -25 -25 -25 -26 -26 -27 -27 -28 -28 -29
-20 -20 -20 -20 -20 -20 -21 -21 -21 -21 -21 -22 -22 -22 -22 -22 -22 -22 -23 -23 -23 -23 -23 -24 -24 -24 -24 -24 -24 -25 -25 -25 -25 -26 -26 -27 -27 -28 -28 -29 -30 -30 -31
-20 -20 -21 -21 -21 -21 -21 -22 -22 -22 -22 -22 -22 -23 -23 -23 -23 -23 -23 -23 -23 -24 -24 -24 -24 -25 -25 -25 -25 -26 -26 -26 -27 -27 -28 -28 -29 -29 -30 -30 -31 -32 -32
-22 -22 -22 -22 -22 -22 -22 -22 -22 -23 -23 -23 -23 -23 -23 -23 -23 -24 -24 -24 -25 -25 -25 -25 -26 -26 -26 -26 -26 -27 -27 -27 -28 -29 -30 -30 -31 -31 -32 -32 -33 -33 -34
-22 -23 -23 -23 -23 -23 -23 -23 -23 -23 -24 -24 -24 -24 -24 -24 -25 -25 -25 -25 -26 -26 -26 -26 -26 -26 -27 -27 -27 -28 -29 -30 -31 -31 -32 -32 -33 -34 -34 -35 -35 -36 -36
-23 -23 -23 -24 -24 -24 -24 -24 -24 -24 -24 -24 -24 -25 -25 -25 -26 -26 -26 -26 -26 -26 -27 -27 -27 -28 -28 -29 -30 -30 -31 -32 -33 -34 -34 -35 -35 -36 -37 -37 -37 -36 -36
Height
5789 5791 5793 5793 5792 5791 5791 5791 5790 5789 5789 5787 5785 5782 5780 5777 5775 5771 5769 5767 5765 5761 5758 5753 5749 5745 5739 5735 5729 5723 5718 5712 5707 5701 5695 5690 5685 5679 5675 5668 5664 5658 5653
5781 5782 5783 5783 5783 5782 5782 5781 5779 5778 5776 5774 5772 5770 5769 5766 5762 5759 5756 5754 5752 5748 5744 5739 5735 5730 5725 5720 5714 5709 5704 5699 5693 5688 5682 5676 5672 5667 5662 5657 5651 5646 5642
5773 5773 5773 5773 5773 5773 5772 5771 5769 5767 5765 5762 5760 5759 5757 5755 5752 5749 5745 5742 5738 5735 5731 5726 5722 5716 5712 5707 5701 5697 5691 5687 5682 5675 5669 5663 5659 5655 5649 5646 5641 5634 5630
5762 5763 5762 5762 5763 5762 5760 5759 5757 5755 5753 5751 5749 5747 5745 5743 5740 5737 5733 5729 5726 5721 5718 5712 5709 5704 5700 5694 5689 5682 5679 5675 5669 5665 5658 5652 5647 5640 5638 5633 5630 5624 5619
5750 5751 5751 5751 5750 5749 5747 5745 5744 5742 5741 5739 5737 5734 5732 5729 5727 5723 5719 5716 5711 5708 5704 5699 5695 5691 5686 5683 5680 5678 5667 5661 5657 5653 5645 5641 5635 5629 5626 5621 5617 5613 5608
5738 5738 5738 5737 5736 5736 5734 5733 5732 5730 5727 5725 5722 5720 5717 5714 5712 5708 5704 5701 5697 5693 5689 5685 5682 5679 5675 5669 5666 5666 5656 5648 5642 5639 5633 5628 5623 5618 5613 5609 5605 5600 5597
5723 5723 5723 5723 5722 5721 5720 5718 5715 5713 5711 5710 5708 5705 5702 5699 5696 5693 5690 5687 5683 5679 5676 5672 5668 5663 5660 5657 5653 5646 5641 5638 5634 5627 5622 5617 5611 5606 5603 5597 5594 5587 5582
5711 5711 5710 5709 5708 5707 5705 5704 5702 5700 5699 5697 5694 5692 5689 5686 5683 5679 5674 5671 5666 5663 5660 5657 5654 5649 5646 5643 5638 5633 5630 5623 5619 5614 5609 5604 5598 5595 5592 5586 5581 5574 5568
5698 5697 5696 5696 5694 5693 5691 5689 5687 5685 5683 5680 5678 5675 5672 5669 5667 5662 5658 5656 5652 5649 5646 5642 5638 5634 5630 5625 5621 5617 5614 5611 5606 5600 5597 5592 5587 5585 5580 5574 5567 5563 5557
5685 5684 5683 5682 5681 5680 5678 5676 5674 5671 5669 5667 5664 5661 5658 5655 5652 5648 5644 5641 5639 5634 5629 5624 5620 5616 5612 5607 5607 5604 5601 5595 5593 5589 5587 5581 5577 5572 5565 5560 5554 5548 5542
5671 5670 5669 5668 5667 5665 5663 5662 5660 5658 5656 5653 5650 5646 5644 5641 5639 5634 5631 5627 5623 5620 5615 5611 5608 5604 5599 5594 5594 5592 5590 5585 5581 5576 5573 5568 5563 5557 5551 5545 5540 5533 5528
5658 5656 5655 5654 5654 5652 5650 5648 5647 5645 5643 5640 5637 5634 5632 5630 5627 5624 5620 5617 5614 5609 5605 5601 5597 5593 5590 5587 5583 5581 5577 5572 5568 5563 5559 5553 5548 5542 5536 5531 5525 5519 5513
5644 5644 5643 5643 5642 5640 5638 5637 5635 5634 5631 5629 5626 5623 5621 5617 5614 5611 5608 5605 5601 5597 5595 5591 5586 5582 5577 5573 5569 5567 5563 5558 5554 5550 5545 5540 5534 5528 5522 5515 5509 5503 5498
5632 5632 5632 5631 5630 5629 5628 5626 5624 5622 5620 5618 5615 5612 5609 5607 5603 5600 5596 5593 5590 5585 5582 5578 5572 5569 5566 5562 5558 5553 5548 5543 5539 5534 5528 5522 5516 5511 5506 5500 5494 5489 5485
5622 5621 5621 5620 5618 5617 5616 5614 5611 5609 5607 5604 5602 5599 5596 5593 5589 5585 5582 5578 5574 5571 5567 5562 5558 5555 5551 5547 5542 5539 5534 5529 5524 5519 5513 5507 5501 5496 5490 5484 5479 5475 5471
5612 5611 5610 5609 5607 5605 5603 5600 5598 5596 5593 5591 5587 5584 5582 5579 5577 5573 5569 5565 5561 5557 5552 5547 5543 5541 5536 5532 5527 5523 5518 5512 5505 5500 5495 5489 5484 5479 5474 5468 5462 5457 5452
5600 5599 5597 5596 5594 5591 5589 5587 5585 5583 5580 5577 5574 5571 5568 5565 5561 5557 5552 5548 5545 5541 5537 5534 5530 5525 5520 5516 5511 5506 5500 5495 5491 5486 5480 5473 5467 5462 5456 5450 5443 5438 5433
5586 5584 5583 5581 5579 5577 5575 5573 5571 5569 5566 5564 5560 5557 5553 5549 5546 5542 5539 5534 5530 5526 5521 5517 5513 5509 5504 5498 5493 5489 5482 5476 5470 5464 5460 5454 5448 5443 5436 5430 5423 5417 5412
5573 5571 5569 5567 5565 5563 5560 5558 5556 5553 5551 5548 5545 5541 5537 5533 5529 5526 5522 5518 5513 5508 5504 5499 5494 5488 5483 5479 5473 5467 5462 5456 5450 5444 5438 5432 5425 5419 5413 5406 5399 5393 5387
5558 5556 5555 5551 5548 5546 5544 5541 5538 5535 5532 5529 5526 5523 5519 5515 5511 5507 5503 5499 5494 5489 5485 5480 5474 5468 5463 5458 5453 5446 5440 5434 5428 5422 5415 5408 5401 5394 5388 5381 5375 5369 5363
5540 5539 5538 5536 5534 5530 5526 5524 5521 5518 5514 5511 5508 5503 5500 5496 5492 5488 5483 5478 5473 5468 5463 5458 5453 5447 5441 5435 5429 5422 5417 5410 5403 5396 5389 5382 5375 5368 5361 5356 5349 5343 5338
5521 5520 5518 5516 5514 5511 5507 5504 5501 5498 5495 5492 5488 5484 5480 5476 5471 5466 5461 5456 5451 5446 5441 5435 5429 5422 5417 5410 5405 5398 5392 5385 5377 5369 5363 5355 5348 5341 5335 5329 5323 5317 5312
5504 5502 5499 5496 5494 5492 5489 5485 5481 5478 5474 5470 5466 5461 5457 5452 5446 5442 5437 5431 5426 5421 5415 5410 5404 5397 5391 5385 5378 5372 5365 5357 5349 5341 5334 5327 5321 5314 5308 5303 5296 5291 5287
5484 5481 5478 5476 5473 5470 5466 5462 5459 5454 5451 5447 5443 5438 5433 5428 5423 5418 5413 5406 5400 5394 5388 5382 5377 5371 5365 5356 5350 5343 5335 5328 5320 5313 5307 5301 5295 5289 5283 5278 5273 5268 5264
5462 5460 5456 5453 5449 5445 5442 5439 5434 5430 5425 5420 5416 5412 5406 5402 5396 5391 5386 5381 5374 5368 5361 5354 5347 5341 5335 5328 5321 5313 5306 5299 5294 5287 5282 5277 5272 5267 5262 5258 5254 5252 5249
5441 5437 5433 5430 5426 5422 5418 5414 5409 5404 5400 5396 5391 5386 5380 5374 5368 5363 5357 5351 5345 5339 5333 5326 5319 5312 5305 5298 5292 5286 5280 5274 5269 5264 5260 5256 5252 5248 5245 5243 5242 5240 5237
Wind_Speed
25 27 28 31 34 36 37 37 40 44 47 49 52 54 56 57 58 60 60 60 59 60 60 62 61 61 63 63 62 64 58 62 62 64 66 61 64 62 60 57 55 54 58
31 31 32 35 37 38 41 43 45 47 49 50 52 54 56 58 59 60 62 61 60 61 62 65 67 69 66 63 58 62 70 61 63 65 66 60 60 56 56 58 54 60 58
36 37 38 40 41 43 43 44 46 49 51 52 54 56 58 60 60 59 60 63 64 64 66 67 67 64 61 60 60 61 58 67 68 65 57 70 56 59 56 58 58 59 57
41 42 43 45 45 45 46 47 49 49 50 51 51 53 56 57 58 59 62 65 68 70 70 68 65 61 59 57 59 54 66 65 68 64 66 51 55 57 56 56 58 59 58
44 45 45 45 47 49 51 52 53 52 53 52 53 54 56 59 62 63 63 65 66 66 65 65 64 60 58 59 48 66 66 65 62 61 70 62 54 58 55 56 57 57 56
49 50 51 53 54 55 54 55 56 57 58 59 59 60 61 61 62 63 64 64 63 61 58 57 56 56 57 57 56 61 58 59 61 53 64 60 54 58 61 56 59 55 62
54 54 52 52 51 52 53 54 56 57 58 58 58 59 59 60 61 63 63 62 60 57 53 55 56 58 58 53 56 53 49 57 63 63 51 59 65 57 54 55 56 58 65
53 50 51 52 53 54 54 53 52 52 54 55 56 57 58 60 62 63 63 62 59 55 55 53 54 57 61 60 62 59 53 55 59 55 64 62 61 57 54 54 57 62 66
51 51 51 52 52 52 53 53 55 56 56 56 56 58 59 61 61 62 61 60 59 58 59 59 58 57 57 57 59 57 59 56 59 60 64 66 62 59 59 58 59 64 67
45 47 48 49 49 50 51 53 54 55 56 57 59 59 59 58 59 56 55 55 52 52 51 53 53 51 52 58 49 50 57 58 53 58 63 63 59 60 58 57 61 64 66
44 45 45 46 47 48 49 50 51 52 53 51 50 50 51 51 52 51 51 51 48 48 49 49 49 49 48 52 45 45 56 53 55 55 58 59 58 69 68 62 65 64 67
44 45 45 45 44 43 43 43 42 43 44 46 46 47 47 46 44 44 45 45 46 45 47 46 47 46 46 50 50 51 51 52 60 60 59 58 66 65 64 70 68 70 69
38 39 39 40 41 41 42 43 43 43 43 42 40 40 40 39 38 37 39 40 40 42 43 43 43 44 45 46 48 51 53 56 58 57 58 62 63 65 68 69 67 65 63
35 36 36 37 37 37 37 36 36 35 36 38 37 36 35 35 34 34 35 37 37 38 39 40 40 43 45 46 48 50 52 53 56 59 60 63 64 63 62 60 61 61 59
30 32 33 34 35 35 35 35 34 32 32 32 33 33 34 35 36 35 35 37 39 41 43 44 46 47 48 50 50 53 54 55 58 59 60 62 63 64 66 66 67 67 68
29 30 30 31 31 32 33 33 35 35 36 38 37 38 38 40 41 42 43 43 44 46 47 47 48 50 52 55 56 58 60 61 61 62 63 65 67 69 70 71 71 71 71
33 34 35 36 36 37 38 39 42 42 41 41 42 42 43 43 44 45 45 47 48 50 51 51 52 54 55 58 60 61 62 65 67 70 72 71 71 72 74 75 76 77 77
40 40 41 42 43 44 45 46 47 47 47 47 47 48 49 48 49 49 51 52 53 54 56 57 59 60 62 64 65 66 67 68 69 70 71 72 73 74 75 76 77 78 78
48 48 46 47 48 49 50 51 50 51 52 54 55 55 55 56 57 59 59 60 61 61 62 64 66 67 67 70 71 72 73 74 75 76 77 78 79 80 79 80 79 79 80
53 53 55 54 54 55 57 57 57 58 59 60 61 60 61 61 62 63 64 65 66 68 70 71 73 74 74 76 78 79 79 80 79 81 82 83 84 84 83 83 82 82 81
56 58 59 62 64 62 60 61 63 64 64 64 66 66 67 67 68 69 70 71 73 74 76 77 77 79 81 83 83 83 83 83 85 86 86 87 86 86 84 83 83 82 80
61 62 64 65 68 68 67 68 69 69 70 70 71 72 72 73 74 75 76 77 78 78 80 81 82 84 87 88 88 87 88 88 89 88 88 88 87 86 84 84 83 81 81
66 68 70 71 72 74 74 73 72 73 74 75 76 76 78 80 81 82 83 82 83 84 86 88 89 89 89 89 89 90 90 90 90 89 88 85 82 81 80 80 80 79 78
72 74 75 77 77 77 78 77 77 77 79 82 83 84 86 88 87 88 89 88 88 89 90 90 90 91 93 92 93 94 94 93 89 85 80 77 76 78 77 75 72 70 67
78 79 79 79 80 81 82 83 84 85 87 87 89 90 92 93 93 93 92 90 90 91 92 93 93 95 94 95 96 94 89 82 77 74 71 69 68 65 62 59 52 42 37
82 83 85 87 88 90 90 91 92 93 93 95 95 95 95 95 94 93 93 93 94 95 95 96 97 96 95 92 88 84 78 72 64 62 60 58 53 47 42 38 36 36 37
Wind_Direction
238 241 249 251 254 257 261 264 264 266 270 271 271 272 275 277 279 280 283 286 288 289 291 291 292 292 294 294 292 293 296 297 298 299 302 300 301 303 303 301 302 304 303
248 251 252 252 252 255 260 266 268 270 271 272 271 272 274 275 278 281 283 287 289 291 292 292 293 292 292 294 297 288 293 291 295 300 299 299 302 299 300 302 301 301 306
251 253 254 257 261 263 265 267 269 270 273 276 277 276 276 278 280 283 285 287 288 289 291 293 295 297 298 300 303 303 301 303 298 305 289 301 296 297 297 299 299 303 309
253 256 259 262 263 264 265 266 270 276 276 277 280 282 281 280 281 284 286 288 290 291 292 295 295 297 298 298 305 293 305 298 300 299 299 295 292 289 300 299 304 306 305
261 262 264 264 265 264 266 269 273 277 279 280 283 281 280 280 281 283 286 288 290 290 291 294 295 293 297 298 302 288 297 297 299 292 293 290 293 293 299 306 304 307 304
264 266 268 269 272 276 277 278 279 280 283 285 286 286 286 285 285 286 286 287 286 287 288 291 293 294 291 294 295 292 283 294 289 283 284 299 292 298 302 303 301 303 298
272 271 271 273 276 278 279 279 279 280 282 283 284 285 285 284 284 284 285 285 286 286 286 287 289 291 292 293 296 298 286 298 293 293 286 293 300 305 307 302 303 299 301
269 272 273 274 275 276 277 278 280 281 282 282 282 283 284 284 284 283 283 283 283 285 287 288 290 291 295 297 292 295 295 296 281 282 292 304 309 307 305 304 307 300 300
267 269 271 272 274 276 279 281 281 281 281 280 281 281 281 282 284 285 287 289 291 293 294 294 294 295 293 291 293 294 292 287 280 287 297 306 301 296 301 309 307 302 302
269 271 273 276 278 280 281 281 279 280 280 281 281 282 284 288 290 294 297 297 295 292 290 291 288 286 284 294 287 296 296 287 283 296 297 298 299 302 304 306 306 303 303
265 268 271 274 274 276 278 280 282 283 286 288 289 290 292 293 292 293 294 294 296 297 298 298 299 296 297 285 295 297 290 287 294 295 299 300 298 303 300 297 303 302 301
265 267 269 272 274 278 282 284 284 284 283 284 284 285 285 289 293 297 299 300 302 303 303 301 299 295 292 287 288 281 288 288 287 288 296 299 302 299 298 301 297 298 300
269 272 274 277 280 281 279 278 278 278 280 283 288 292 294 295 295 297 297 299 301 301 300 301 301 300 295 290 287 287 287 287 286 287 293 299 301 300 301 301 301 300 299
272 272 272 273 274 274 275 277 278 281 284 287 288 290 293 295 299 302 304 307 307 308 305 302 300 299 297 295 295 292 287 285 285 290 292 291 292 295 297 298 299 299 298
268 268 268 268 269 270 271 273 276 278 284 286 287 289 291 294 295 293 293 296 297 297 296 297 297 297 297 294 292 290 288 289 289 289 291 294 296 297 298 298 298 298 299
270 272 275 276 278 278 279 282 284 283 283 284 284 286 287 287 288 288 289 289 289 288 287 286 287 288 288 289 290 290 289 288 290 292 292 292 293 295 297 297 298 299 300
273 277 277 278 282 284 284 283 282 281 281 281 282 283 283 285 287 288 286 286 285 284 284 284 285 285 287 287 288 289 291 292 293 294 295 297 297 297 298 298 299 298 298
268 271 275 278 280 280 281 282 282 283 283 284 285 288 288 287 288 288 289 292 292 291 290 289 290 291 293 293 294 295 296 297 296 296 296 296 297 298 298 297 295 293 292
275 273 275 278 281 282 283 283 283 284 287 289 291 291 291 292 293 293 292 292 293 293 292 292 293 293 294 294 295 295 296 296 295 296 297 298 297 298 297 294 292 291 290
281 281 281 280 281 281 284 284 284 285 286 288 289 289 289 290 289 289 289 291 291 292 292 291 291 292 293 294 295 295 296 296 297 297 298 297 296 295 294 292 291 288 287
281 282 283 284 283 282 282 283 284 286 286 287 287 287 288 288 288 287 288 288 289 290 291 291 290 291 293 294 294 295 296 296 297 297 296 295 294 293 291 290 288 287 286
280 280 281 281 282 283 283 283 284 286 286 287 288 288 288 288 288 288 287 288 290 290 290 290 291 292 293 294 295 295 296 296 295 294 294 293 292 291 289 288 287 286 285
280 281 281 281 282 283 284 284 285 285 286 287 287 288 289 290 289 289 288 289 291 291 292 292 292 293 294 295 296 296 295 294 293 293 292 292 291 290 287 285 285 285 286
280 280 280 282 283 283 283 284 284 285 286 287 288 290 291 291 290 290 290 291 292 292 293 294 294 295 296 296 295 294 294 294 294 294 293 292 288 285 285 286 285 285 287
279 281 282 283 283 283 283 283 284 286 287 288 289 290 291 291 291 291 292 292 292 294 294 294 294 294 294 294 294 293 295 295 295 292 290 287 287 287 286 286 289 288 289
279 279 279 280 280 280 281 283 284 286 287 289 290 291 291 291 291 292 292 292 292 292 293 293 293 293 293 293 295 295 295 293 291 288 287 287 287 285 282 283 285 289 293